Overview Statistics Trail Chart Weather Telemetry Raw packets
 

This is the latest recevied weather packets stored in our database for station/object VA2RBQ-7. If no packets are shown the sender has not sent any weather packets the latest 10 day(s).

<< 22 23 24 25 26 27 28 >>
Time Temp. Humidity Pressure Rain* Wind** Luminosity Snow
1788393877 8.33° C 53% 1023.1 hPa 0 mm - - -
1788393574 8.33° C 52% 1023.1 hPa 0 mm - - -
1788393271 8.33° C 53% 1023.2 hPa 0 mm - - -
1788392969 8.33° C 53% 1023.3 hPa 0 mm - - -
1788392666 8.89° C 53% 1023.3 hPa 0 mm - - -
1788392364 8.89° C 53% 1023.5 hPa 0 mm - - -
1788392061 8.89° C 53% 1023.4 hPa 0 mm - - -
1788391758 8.89° C 53% 1023.4 hPa 0 mm - - -
1788391456 8.89° C 53% 1023.4 hPa 0 mm - - -
1788391153 9.44° C 53% 1023.4 hPa 0 mm - - -
1788390851 9.44° C 53% 1023.4 hPa 0 mm - - -
1788390548 9.44° C 53% 1023.3 hPa 0 mm - - -
1788390245 9.44° C 53% 1023.4 hPa 0 mm - - -
1788389943 9.44° C 53% 1023.4 hPa 0 mm - - -
1788389640 9.44° C 53% 1023.4 hPa 0 mm - - -
1788389338 9.44° C 53% 1023.5 hPa 0 mm - - -
1788389035 10° C 53% 1023.7 hPa 0 mm - - -
1788388732 11.11° C 54% 1023.8 hPa 0 mm - - -
1788388430 11.67° C 54% 1023.8 hPa 0 mm - - -
1788388127 12.78° C 54% 1023.8 hPa 0 mm - - -
1788387825 12.22° C 54% 1023.8 hPa 0 mm - - -
1788387522 12.22° C 54% 1024 hPa 0 mm - - -
1788387219 13.89° C 54% 1024 hPa 0 mm - - -
1788386917 14.44° C 54% 1023.8 hPa 0 mm - - -
1788386614 14.44° C 54% 1023.9 hPa 0 mm - - -

* Rain since midnight (hover to see other rain measurements)
** Current wind speed in m/s (hover to see current wind gust speed)